Regional Weather Roundup
Issued by NWS

Home | Current Version | Previous Version | Graphics & Text | Print | Product List | Glossary On
Versions: 1 2 3 4 5 6 7 8 9 10 11 12 13 14 15 16 17 18 19 20 21 22 23 24 25 26 27 28 29 30 31 32 33 34 35 36 37 38 39 40 41 42 43 44 45 46 47 48 49 50
000
ASUS43 KLMK 172310
RWRKY
KENTUCKY REGIONAL WEATHER ROUNDUP
NATIONAL WEATHER SERVICE LOUISVILLE KY
700 PM EDT FRI APR 17 2015

NOTE "FAIR" INDICATES FEW OR NO CLOUDS BELOW 12,000 FEET
WITH NO SIGNIFICANT WEATHER AND/OR OBSTRUCTIONS TO VISIBILITY.

KYZ001>023-026-027-061>063-070>075-180000-
WESTERN AND SOUTH CENTRAL KENTUCKY

CITY           SKY/WX    TMP DP  RH WIND       PRES   REMARKS
PADUCAH        MOSUNNY   75  62  64 CALM      29.98S
HENDERSON      MOSUNNY   70  57  64 NE5       29.99S
OWENSBORO      MOSUNNY   75  62  64 VRB6      30.01S
HOPKINSVILLE   MOSUNNY   71  62  72 NE6       30.00S
BOWLING GREEN  CLOUDY    74  60  61 NE3       30.01F
GLASGOW        MOSUNNY   72  58  60 CALM      30.01F
$$

KYZ024-025-028>034-038-045-046-053-180000-
NORTH CENTRAL KENTUCKY

CITY           SKY/WX    TMP DP  RH WIND       PRES   REMARKS
LOUISVILLE/SDF CLOUDY    74  58  57 S8        30.00S
LOUISVILLE/LOU CLOUDY    74  56  53 CALM      30.01S
FORT KNOX      CLOUDY    74  59  60 W5        30.00S
$$

KYZ035>037-039>044-047>052-055>060-089>105-180000-
NORTHEAST KENTUCKY

CITY           SKY/WX    TMP DP  RH WIND       PRES   REMARKS
LEXINGTON      CLOUDY    70  59  68 CALM      30.02F
COVINGTON      PTSUNNY   74  47  38 NW3       30.02S
FRANKFORT      CLOUDY    71  58  63 S3        30.00F
$$

KYZ054-064>069-076>088-106>120-180000-
SOUTHEAST KENTUCKY

CITY           SKY/WX    TMP DP  RH WIND       PRES   REMARKS
JACKSON        MOSUNNY   72  55  55 CALM      30.02S
LONDON         PTSUNNY   74  54  49 N6        30.01S
SOMERSET       CLOUDY    70  55  60 N3        30.03S
MIDDLESBORO    CLOUDY    71  58  64 S6        30.02R
MONTICELLO     CLOUDY    73  59  61 N5        30.04F
$$



USA.gov is the U.S. government's official web portal to all federal, state and local government web resources and services.